TimeCDT,TemperatureF,Dew PointF,Humidity,Sea Level PressureIn,VisibilityMPH,Wind Direction,Wind SpeedMPH,Gust SpeedMPH,PrecipitationIn,Events,Conditions,WindDirDegrees,DateUTC
12:15 AM,46.4,41.0,81,30.04,10.0,North,20.7,-,N/A,,Clear,10,2013-04-03 05:15:00
12:35 AM,46.4,41.0,81,30.02,10.0,NE,11.5,-,N/A,,Clear,40,2013-04-03 05:35:00
12:55 AM,44.6,39.2,81,30.02,10.0,NE,8.1,-,N/A,,Clear,50,2013-04-03 05:55:00
1:15 AM,44.6,41.0,87,30.02,10.0,NNE,12.7,-,N/A,,Clear,30,2013-04-03 06:15:00
1:35 AM,44.6,39.2,81,30.02,10.0,NNE,9.2,-,N/A,,Clear,20,2013-04-03 06:35:00
1:55 AM,44.6,39.2,81,30.02,10.0,North,4.6,-,N/A,,Clear,360,2013-04-03 06:55:00
2:15 AM,42.8,39.2,87,30.03,10.0,NE,13.8,-,N/A,,Clear,50,2013-04-03 07:15:00
2:35 AM,42.8,39.2,87,30.04,10.0,NNE,4.6,-,N/A,,Clear,30,2013-04-03 07:35:00
2:55 AM,42.8,37.4,81,30.04,10.0,NNE,10.4,-,N/A,,Clear,20,2013-04-03 07:55:00
3:15 AM,41.0,37.4,87,30.03,10.0,NNE,11.5,-,N/A,,Clear,30,2013-04-03 08:15:00
3:35 AM,41.0,37.4,87,30.04,10.0,NNE,12.7,-,N/A,,Clear,30,2013-04-03 08:35:00
3:55 AM,41.0,37.4,87,30.05,10.0,NNE,8.1,-,N/A,,Clear,20,2013-04-03 08:55:00
4:15 AM,41.0,37.4,87,30.06,10.0,NNE,13.8,-,N/A,,Clear,20,2013-04-03 09:15:00
4:35 AM,41.0,37.4,87,30.05,10.0,NNE,13.8,-,N/A,,Clear,20,2013-04-03 09:35:00
4:55 AM,41.0,37.4,87,30.05,10.0,NNE,10.4,-,N/A,,Clear,20,2013-04-03 09:55:00
5:15 AM,39.2,37.4,93,30.04,10.0,NNE,9.2,-,N/A,,Clear,20,2013-04-03 10:15:00
5:35 AM,39.2,35.6,87,30.05,10.0,NNE,12.7,-,N/A,,Clear,20,2013-04-03 10:35:00
5:55 AM,39.2,37.4,93,30.05,10.0,NNE,15.0,-,N/A,,Clear,20,2013-04-03 10:55:00
6:15 AM,39.2,35.6,87,30.06,10.0,NNE,13.8,18.4,N/A,,Clear,20,2013-04-03 11:15:00
6:35 AM,39.2,35.6,87,30.07,10.0,NNE,11.5,-,N/A,,Clear,30,2013-04-03 11:35:00
6:55 AM,39.2,35.6,87,30.08,10.0,NNE,12.7,-,N/A,,Clear,20,2013-04-03 11:55:00
7:15 AM,39.2,35.6,87,30.09,10.0,NNE,6.9,-,N/A,,Clear,20,2013-04-03 12:15:00
7:35 AM,37.4,35.6,93,30.10,10.0,North,5.8,-,N/A,,Clear,10,2013-04-03 12:35:00
7:55 AM,37.4,35.6,93,30.10,10.0,North,4.6,-,N/A,,Clear,350,2013-04-03 12:55:00
8:15 AM,37.4,35.6,93,30.11,10.0,North,9.2,-,N/A,,Clear,350,2013-04-03 13:15:00
8:35 AM,39.2,35.6,87,30.12,10.0,North,11.5,-,N/A,,Clear,10,2013-04-03 13:35:00
8:55 AM,41.0,37.4,87,30.12,10.0,North,11.5,-,N/A,,Clear,10,2013-04-03 13:55:00
9:15 AM,42.8,37.4,81,30.13,10.0,NE,6.9,-,N/A,,Scattered Clouds,40,2013-04-03 14:15:00
9:35 AM,42.8,37.4,81,30.13,10.0,NE,8.1,-,N/A,,Overcast,50,2013-04-03 14:35:00
9:55 AM,44.6,37.4,76,30.13,10.0,North,6.9,-,N/A,,Mostly Cloudy,360,2013-04-03 14:55:00
10:15 AM,44.6,37.4,76,30.14,10.0,North,4.6,-,N/A,,Partly Cloudy,360,2013-04-03 15:15:00
10:35 AM,46.4,37.4,71,30.14,10.0,East,4.6,-,N/A,,Clear,90,2013-04-03 15:35:00
10:55 AM,48.2,37.4,66,30.15,10.0,NW,5.8,-,N/A,,Partly Cloudy,320,2013-04-03 15:55:00
11:15 AM,48.2,37.4,66,30.15,10.0,NNE,4.6,-,N/A,,Partly Cloudy,30,2013-04-03 16:15:00
11:35 AM,48.2,37.4,66,30.15,10.0,Calm,Calm,-,N/A,,Clear,0,2013-04-03 16:35:00
11:55 AM,50.0,37.4,62,30.15,10.0,North,4.6,-,N/A,,Clear,10,2013-04-03 16:55:00
12:15 PM,51.8,37.4,58,30.15,10.0,NW,5.8,-,N/A,,Clear,310,2013-04-03 17:15:00
12:35 PM,53.6,37.4,54,30.15,10.0,West,3.5,-,N/A,,Clear,270,2013-04-03 17:35:00
12:55 PM,53.6,37.4,54,30.14,10.0,Calm,Calm,-,N/A,,Clear,0,2013-04-03 17:55:00
1:15 PM,55.4,37.4,51,30.14,10.0,NNE,3.5,-,N/A,,Clear,20,2013-04-03 18:15:00
1:35 PM,57.2,37.4,48,30.13,10.0,Calm,Calm,-,N/A,,Clear,0,2013-04-03 18:35:00
1:55 PM,59.0,35.6,42,30.12,10.0,SSW,5.8,-,N/A,,Partly Cloudy,200,2013-04-03 18:55:00
2:15 PM,62.6,33.8,34,30.11,10.0,WNW,11.5,17.3,N/A,,Partly Cloudy,290,2013-04-03 19:15:00
2:35 PM,64.4,33.8,32,30.11,10.0,NW,10.4,17.3,N/A,,Clear,310,2013-04-03 19:35:00
2:55 PM,64.4,32.0,30,30.10,10.0,West,10.4,19.6,N/A,,Clear,280,2013-04-03 19:55:00
3:15 PM,66.2,33.8,30,30.10,10.0,West,15.0,18.4,N/A,,Clear,270,2013-04-03 20:15:00
3:35 PM,66.2,28.4,24,30.09,10.0,West,17.3,23.0,N/A,,Clear,280,2013-04-03 20:35:00
3:55 PM,66.2,26.6,23,30.09,10.0,WNW,10.4,23.0,N/A,,Clear,300,2013-04-03 20:55:00
4:15 PM,66.2,26.6,23,30.08,10.0,WSW,10.4,21.9,N/A,,Clear,240,2013-04-03 21:15:00
4:35 PM,66.2,24.8,21,30.09,10.0,West,13.8,24.2,N/A,,Clear,280,2013-04-03 21:35:00
4:55 PM,66.2,24.8,21,30.09,10.0,West,11.5,25.3,N/A,,Clear,270,2013-04-03 21:55:00
5:15 PM,66.2,24.8,21,30.09,10.0,West,18.4,-,N/A,,Clear,280,2013-04-03 22:15:00
5:35 PM,66.2,24.8,21,30.09,10.0,West,16.1,21.9,N/A,,Clear,280,2013-04-03 22:35:00
5:55 PM,66.2,24.8,21,30.10,10.0,NW,16.1,24.2,N/A,,Clear,320,2013-04-03 22:55:00
6:15 PM,66.2,24.8,21,30.10,10.0,NNW,15.0,20.7,N/A,,Clear,330,2013-04-03 23:15:00
6:35 PM,64.4,24.8,22,30.10,10.0,NNE,8.1,18.4,N/A,,Clear,30,2013-04-03 23:35:00
6:55 PM,62.6,33.8,34,30.10,10.0,ENE,11.5,-,N/A,,Clear,60,2013-04-03 23:55:00
7:15 PM,62.6,35.6,37,30.11,10.0,NE,16.1,-,N/A,,Clear,40,2013-04-04 00:15:00
7:35 PM,59.0,33.8,39,30.12,10.0,NE,16.1,19.6,N/A,,Clear,50,2013-04-04 00:35:00
7:55 PM,57.2,33.8,41,30.12,10.0,NE,16.1,20.7,N/A,,Clear,50,2013-04-04 00:55:00
8:15 PM,55.4,33.8,44,30.13,10.0,NE,15.0,19.6,N/A,,Clear,50,2013-04-04 01:15:00
8:35 PM,53.6,33.8,47,30.14,10.0,NE,16.1,-,N/A,,Clear,50,2013-04-04 01:35:00
8:55 PM,51.8,33.8,50,30.14,10.0,NE,15.0,-,N/A,,Clear,50,2013-04-04 01:55:00
9:15 PM,51.8,33.8,50,30.15,10.0,NE,13.8,-,N/A,,Clear,40,2013-04-04 02:15:00
9:35 PM,50.0,33.8,54,30.17,10.0,NE,12.7,-,N/A,,Clear,40,2013-04-04 02:35:00
9:55 PM,48.2,33.8,58,30.17,10.0,NE,12.7,-,N/A,,Clear,40,2013-04-04 02:55:00
10:15 PM,48.2,33.8,58,30.18,10.0,NE,13.8,-,N/A,,Clear,50,2013-04-04 03:15:00
10:35 PM,48.2,33.8,58,30.19,10.0,NE,12.7,-,N/A,,Clear,50,2013-04-04 03:35:00
10:55 PM,46.4,33.8,62,30.19,10.0,NE,6.9,-,N/A,,Clear,50,2013-04-04 03:55:00
11:15 PM,46.4,33.8,62,30.19,10.0,Calm,Calm,-,N/A,,Clear,0,2013-04-04 04:15:00
11:35 PM,44.6,33.8,66,30.19,10.0,Calm,Calm,-,N/A,,Clear,0,2013-04-04 04:35:00
11:55 PM,44.6,33.8,66,30.19,10.0,North,4.6,-,N/A,,Clear,10,2013-04-04 04:55:00